{"data":{"norad_id":59473,"intl_designator":"2024-068U","name":"STARLINK-31610","alt_names":[],"object_type":"PAYLOAD","status":"ACTIVE","operator":null,"country":"US","launch_date":"2024-04-10","launch_site_code":"AFETR","launch_vehicle":null,"mission":null,"orbit_class":"UNKNOWN","rcs_meters":null,"size_class":null,"mass_kg":null,"dimensions":null,"purposes":["comms"],"wikipedia_slug":null,"has_3d_model":false,"image_url":null,"decayed_at":null,"tle_current":{"epoch":"2026-09-21T07:38:35.080512Z","epoch_age_seconds":94499,"freshness":"FRESH","line1":"1 59473U 24068U   26264.31846158 -.00004318  00000+0 -14738-3 0  9997","line2":"2 59473  43.0006   9.5311 0001602 291.8389  68.2292 15.27597798138440","mean_motion":15.27597798,"eccentricity":0.0001602,"inclination_deg":43.0006,"raan_deg":9.5311,"arg_perigee_deg":291.8389,"mean_anomaly_deg":68.2292,"bstar":-0.00014738,"rev_number":13844,"period_min":94.265650414351,"perigee_km":481.89664946726,"apogee_km":484.09495641732,"semimajor_km":6861.1328029423,"source":"CELESTRAK","updated_at":"2026-09-22T09:00:48.950725Z"}}}